Bend, OR

4:10 AM PST on December 10, 2016 (GMT -0800)
Bend Municipal

Weather History for KBDN - May, 2013

Change the Weather History Date:

Thursday, May 16, 2013

  Actual Average (KRDM) Record (KRDM)
Temperature  
Mean Temperature 50 °F -  
Max Temperature 60 °F 64 °F 92 °F (2008)
Min Temperature 39 °F 33 °F 24 °F (1984)
Degree Days  
Heating Degree Days 16    
Moisture  
Dew Point 39 °F    
Average Humidity 72    
Maximum Humidity 100    
Minimum Humidity 42    
Precipitation  
Precipitation 0.08 in - - ()
Sea Level Pressure  
Sea Level Pressure 29.96 in    
Wind  
Wind Speed 3 mph (SW)    
Max Wind Speed 18 mph    
Max Gust Speed 18 mph    
Visibility 9 miles    
Events Rain    
Averages and records for this station are not official NWS values.
T = Trace of Precipitation, MM = Missing Value Source: NWS Daily Summary

Daily Weather History Graph

Daily Weather History Graph

Search for Another Location

Airport or City:

Trip Planner

Search our weather history database for the weather conditions in past years. The results will help you decide how hot, cold, wet, or windy it might be!

Date:

Astronomy

May. 16, 2013 Rise Set
Actual Time 5:37 AM PDT 8:26 PM PDT
Civil Twilight 5:03 AM PDT 8:59 PM PDT
Nautical Twilight 4:20 AM PDT 9:42 PM PDT
Astronomical Twilight 3:31 AM PDT 10:32 PM PDT
Moon 11:19 AM PDT (5/16) 12:46 AM PDT (5/16)
Length of Visible Light 15h 56m
Length of Day
14h 48m
Waxing Crescent, 36% of the Moon is Illuminated
May 16
Waxing Crescent
May 17
First Quarter
May 24
Full
May 31
Last Quarter
Jun 8
New

Hourly Weather History & Observations

Time (PDT) Temp. Windchill Dew Point Humidity Pressure Visibility Wind Dir Wind Speed Gust Speed Precip Events Conditions
12:15 AM 42.8 °F - 37.4 °F 81% 30.03 in 10.0 mi Calm Calm - N/A   Clear
12:35 AM 42.8 °F - 37.4 °F 81% 30.03 in 10.0 mi Calm Calm - N/A   Clear
12:55 AM 41.0 °F - 37.4 °F 87% 30.03 in 10.0 mi Calm Calm - N/A   Clear
1:15 AM 39.2 °F - 35.6 °F 87% 30.03 in 10.0 mi Calm Calm - N/A   Clear
1:35 AM 39.2 °F - 35.6 °F 87% 30.02 in 10.0 mi Calm Calm - N/A   Clear
1:55 AM 39.2 °F 37.0 °F 35.6 °F 87% 30.02 in 10.0 mi SSE 3.5 mph - N/A   Clear
2:15 AM 39.2 °F 37.0 °F 35.6 °F 87% 30.02 in 10.0 mi SSE 3.5 mph - N/A   Clear
3:15 AM 39.2 °F 35.9 °F 35.6 °F 87% 30.00 in 10.0 mi SSE 4.6 mph - N/A   Clear
3:35 AM 39.2 °F - 35.6 °F 87% 29.99 in 10.0 mi Calm Calm - N/A   Clear
3:55 AM 39.2 °F - 35.6 °F 87% 29.99 in 10.0 mi Calm Calm - N/A   Partly Cloudy
4:15 AM 39.2 °F 37.0 °F 35.6 °F 87% 29.99 in 10.0 mi SSE 3.5 mph - N/A   Partly Cloudy
4:35 AM 41.0 °F - 35.6 °F 81% 29.99 in 10.0 mi Calm Calm - N/A   Clear
4:55 AM 41.0 °F - 35.6 °F 81% 29.98 in 10.0 mi Calm Calm - N/A   Clear
5:15 AM 41.0 °F 39.0 °F 35.6 °F 81% 29.98 in 10.0 mi SE 3.5 mph - N/A   Clear
5:35 AM 41.0 °F - 35.6 °F 81% 29.98 in 10.0 mi Calm Calm - N/A   Clear
5:55 AM 41.0 °F - 35.6 °F 81% 29.98 in 10.0 mi Calm Calm - N/A   Clear
6:15 AM 41.0 °F - 35.6 °F 81% 29.98 in 10.0 mi Calm Calm - N/A   Clear
6:35 AM 41.0 °F - 35.6 °F 81% 29.98 in 10.0 mi Calm Calm - N/A   Clear
6:55 AM 42.8 °F 40.1 °F 37.4 °F 81% 29.98 in 10.0 mi SSW 4.6 mph - N/A   Clear
7:15 AM 46.4 °F 44.3 °F 39.2 °F 76% 29.98 in 10.0 mi SW 4.6 mph - N/A   Clear
7:35 AM 46.4 °F 45.2 °F 39.2 °F 76% 29.98 in 10.0 mi SSW 3.5 mph - N/A   Clear
7:55 AM 48.2 °F - 39.2 °F 71% 29.98 in 10.0 mi Calm Calm - N/A   Clear
8:15 AM 48.2 °F - 39.2 °F 71% 29.97 in 10.0 mi Calm Calm - N/A   Clear
8:35 AM 50.0 °F - 39.2 °F 66% 29.97 in 10.0 mi Calm Calm - N/A   Clear
8:55 AM 50.0 °F - 39.2 °F 66% 29.97 in 10.0 mi Calm Calm - N/A   Clear
9:15 AM 51.8 °F - 39.2 °F 62% 29.96 in 10.0 mi Calm Calm - N/A   Partly Cloudy
9:35 AM 53.6 °F - 39.2 °F 58% 29.96 in 10.0 mi SW 3.5 mph - N/A   Partly Cloudy
9:55 AM 55.4 °F - 39.2 °F 54% 29.95 in 9.0 mi South 3.5 mph - N/A   Clear
10:15 AM 55.4 °F - 39.2 °F 54% 29.95 in 10.0 mi East 3.5 mph - N/A   Clear
10:35 AM 57.2 °F - 37.4 °F 48% 29.94 in 10.0 mi Calm Calm - N/A   Clear
10:55 AM 57.2 °F - 35.6 °F 44% 29.94 in 10.0 mi Calm Calm - N/A   Clear
11:15 AM 57.2 °F - 35.6 °F 44% 29.94 in 10.0 mi SE 4.6 mph - N/A   Partly Cloudy
11:35 AM 57.2 °F - 35.6 °F 44% 29.93 in 10.0 mi SSE 4.6 mph - N/A   Clear
11:55 AM 57.2 °F - 35.6 °F 44% 29.93 in 10.0 mi SSE 4.6 mph - N/A   Partly Cloudy
12:15 PM 59.0 °F - 35.6 °F 42% 29.93 in 10.0 mi Calm Calm - N/A   Partly Cloudy
12:35 PM 55.4 °F - 39.2 °F 54% 29.93 in 10.0 mi SSW 12.7 mph - N/A   Scattered Clouds
12:55 PM 55.4 °F - 41.0 °F 58% 29.92 in 10.0 mi South 13.8 mph - N/A   Partly Cloudy
1:15 PM 57.2 °F - 39.2 °F 51% 29.92 in 10.0 mi SSW 10.4 mph - N/A   Clear
1:35 PM 59.0 °F - 37.4 °F 45% 29.91 in 10.0 mi SW 6.9 mph - N/A   Clear
1:55 PM 59.0 °F - 37.4 °F 45% 29.90 in 10.0 mi SW 5.8 mph - N/A   Clear
2:15 PM 60.8 °F - 37.4 °F 42% 29.90 in 10.0 mi SSW 9.2 mph - N/A   Scattered Clouds
2:35 PM 57.2 °F - 39.2 °F 51% 29.91 in 10.0 mi SW 18.4 mph - N/A   Scattered Clouds
2:55 PM 55.4 °F - 41.0 °F 58% 29.91 in 10.0 mi SW 15.0 mph - N/A   Partly Cloudy
3:15 PM 55.4 °F - 39.2 °F 54% 29.91 in 10.0 mi WSW 12.7 mph 18.4 mph N/A   Partly Cloudy
3:35 PM 57.2 °F - 39.2 °F 51% 29.91 in 10.0 mi WSW 9.2 mph - N/A   Partly Cloudy
3:55 PM 55.4 °F - 41.0 °F 58% 29.91 in 10.0 mi West 6.9 mph - N/A   Clear
4:15 PM 55.4 °F - 41.0 °F 58% 29.91 in 10.0 mi West 6.9 mph - N/A   Clear
4:35 PM 55.4 °F - 42.8 °F 63% 29.91 in 10.0 mi West 3.5 mph - N/A   Partly Cloudy
4:55 PM 55.4 °F - 44.6 °F 67% 29.91 in 8.0 mi WNW 5.8 mph - N/A Rain Light Rain
5:15 PM 50.0 °F - 44.6 °F 82% 29.91 in 3.0 mi NW 4.6 mph - 0.03 in Rain Light Rain
5:35 PM 51.8 °F - 44.6 °F 76% 29.91 in 10.0 mi NW 4.6 mph - 0.03 in Rain Light Rain
5:55 PM 51.8 °F - 44.6 °F 76% 29.92 in 10.0 mi NNW 6.9 mph - 0.03 in   Mostly Cloudy
6:15 PM 51.8 °F - 44.6 °F 76% 29.92 in 8.0 mi NNW 6.9 mph - N/A Rain Light Rain
6:35 PM 50.0 °F - 41.0 °F 71% 29.92 in 10.0 mi NNW 5.8 mph - N/A   Overcast
6:55 PM 50.0 °F - 41.0 °F 71% 29.92 in 10.0 mi NW 8.1 mph - N/A Rain Light Rain
7:15 PM 50.0 °F - 41.0 °F 71% 29.93 in 5.0 mi NNW 6.9 mph - N/A Rain Light Rain
7:35 PM 48.2 °F - 44.6 °F 87% 29.93 in 4.0 mi Calm Calm - 0.02 in Rain Light Rain
7:55 PM 46.4 °F - 44.6 °F 93% 29.94 in 3.0 mi Calm Calm - 0.03 in Rain Light Rain
8:15 PM 46.4 °F 43.5 °F 44.6 °F 93% 29.95 in 5.0 mi NNW 5.8 mph - N/A Rain Light Rain
8:35 PM 46.4 °F 45.2 °F 44.6 °F 93% 29.95 in 8.0 mi NNW 3.5 mph - 0.01 in Rain Light Rain
8:55 PM 46.4 °F 43.5 °F 44.6 °F 93% 29.95 in 9.0 mi North 5.8 mph - 0.02 in Rain Light Rain
9:35 PM 44.6 °F - 44.6 °F 100% 29.96 in 10.0 mi Calm Calm - N/A Rain Light Rain
9:55 PM 44.6 °F 43.1 °F 42.8 °F 93% 29.96 in 10.0 mi NNW 3.5 mph - N/A   Overcast
10:15 PM 44.6 °F - 42.8 °F 93% 29.96 in 10.0 mi Calm Calm - N/A   Overcast
10:35 PM 46.4 °F - 42.8 °F 87% 29.97 in 10.0 mi Calm Calm - N/A   Overcast
10:55 PM 46.4 °F - 41.0 °F 81% 29.97 in 10.0 mi Calm Calm - N/A   Overcast
11:15 PM 46.4 °F - 41.0 °F 81% 29.97 in 10.0 mi Calm Calm - N/A   Overcast
11:35 PM 46.4 °F - 41.0 °F 81% 29.97 in 10.0 mi Calm Calm - N/A   Overcast
11:55 PM 46.4 °F - 41.0 °F 81% 29.97 in 10.0 mi Calm Calm - N/A   Overcast